TimeCDT,TemperatureF,Dew PointF,Humidity,Sea Level PressureIn,VisibilityMPH,Wind Direction,Wind SpeedMPH,Gust SpeedMPH,PrecipitationIn,Events,Conditions,WindDirDegrees,DateUTC
12:15 AM,57.2,41.0,55,30.17,10.0,Calm,Calm,-,N/A,,Clear,0,2011-10-04 05:15:00
12:35 AM,55.4,39.2,54,30.17,10.0,Calm,Calm,-,N/A,,Clear,0,2011-10-04 05:35:00
12:55 AM,55.4,41.0,58,30.17,10.0,Calm,Calm,-,N/A,,Clear,0,2011-10-04 05:55:00
1:15 AM,55.4,41.0,58,30.17,10.0,Calm,Calm,-,N/A,,Clear,0,2011-10-04 06:15:00
1:35 AM,53.6,41.0,62,30.17,10.0,Calm,Calm,-,N/A,,Clear,0,2011-10-04 06:35:00
1:55 AM,53.6,41.0,62,30.17,10.0,Calm,Calm,-,N/A,,Clear,0,2011-10-04 06:55:00
2:15 AM,53.6,41.0,62,30.18,10.0,Calm,Calm,-,N/A,,Clear,0,2011-10-04 07:15:00
2:35 AM,53.6,41.0,62,30.18,10.0,Calm,Calm,-,N/A,,Clear,0,2011-10-04 07:35:00
2:55 AM,53.6,41.0,62,30.18,10.0,Calm,Calm,-,N/A,,Clear,0,2011-10-04 07:55:00
3:15 AM,51.8,41.0,67,30.17,10.0,Calm,Calm,-,N/A,,Clear,0,2011-10-04 08:15:00
3:35 AM,51.8,41.0,67,30.17,10.0,Calm,Calm,-,N/A,,Clear,0,2011-10-04 08:35:00
3:55 AM,51.8,42.8,71,30.18,10.0,Calm,Calm,-,N/A,,Clear,0,2011-10-04 08:55:00
4:15 AM,51.8,41.0,67,30.18,10.0,Calm,Calm,-,N/A,,Clear,0,2011-10-04 09:15:00
4:35 AM,51.8,41.0,67,30.18,10.0,Calm,Calm,-,N/A,,Clear,0,2011-10-04 09:35:00
4:55 AM,50.0,42.8,76,30.18,10.0,Calm,Calm,-,N/A,,Clear,0,2011-10-04 09:55:00
5:15 AM,50.0,42.8,76,30.18,10.0,Calm,Calm,-,N/A,,Clear,0,2011-10-04 10:15:00
5:35 AM,50.0,42.8,76,30.18,10.0,Calm,Calm,-,N/A,,Clear,0,2011-10-04 10:35:00
5:55 AM,50.0,42.8,76,30.19,10.0,Calm,Calm,-,N/A,,Clear,0,2011-10-04 10:55:00
6:15 AM,50.0,42.8,76,30.20,10.0,Calm,Calm,-,N/A,,Clear,0,2011-10-04 11:15:00
6:55 AM,50.0,41.0,71,30.20,10.0,Calm,Calm,-,N/A,,Clear,0,2011-10-04 11:55:00
7:55 AM,50.0,42.8,76,30.22,10.0,Calm,Calm,-,N/A,,Clear,0,2011-10-04 12:55:00
8:55 AM,60.8,41.0,48,30.24,10.0,ESE,4.6,-,N/A,,Clear,110,2011-10-04 13:55:00
9:55 AM,69.8,41.0,35,30.25,10.0,ESE,5.8,-,N/A,,Clear,120,2011-10-04 14:55:00
10:55 AM,73.4,42.8,33,30.24,10.0,ESE,3.5,-,N/A,,Clear,120,2011-10-04 15:55:00
11:55 AM,78.8,46.4,32,30.22,10.0,SE,4.6,-,N/A,,Clear,130,2011-10-04 16:55:00
2:55 PM,87.8,41.0,19,30.13,10.0,SSE,6.9,-,N/A,,Clear,160,2011-10-04 19:55:00
4:55 PM,87.8,37.4,17,30.10,10.0,SSE,6.9,-,N/A,,Clear,160,2011-10-04 21:55:00
7:55 PM,69.8,41.0,35,30.10,10.0,SE,4.6,-,N/A,,Clear,130,2011-10-05 00:55:00
10:15 PM,59.0,41.0,51,30.12,10.0,Calm,Calm,-,N/A,,Clear,0,2011-10-05 03:15:00
10:35 PM,62.6,37.4,39,30.13,10.0,Calm,Calm,-,N/A,,Clear,0,2011-10-05 03:35:00
10:55 PM,55.4,41.0,58,30.13,10.0,Calm,Calm,-,N/A,,Clear,0,2011-10-05 03:55:00
11:15 PM,53.6,41.0,62,30.13,10.0,Calm,Calm,-,N/A,,Clear,0,2011-10-05 04:15:00
11:35 PM,59.0,41.0,51,30.13,10.0,Calm,Calm,-,N/A,,Clear,0,2011-10-05 04:35:00